Погода в Мэкэле

Эфиопия     13°29′38″N   39°28′25″E
темп.,
°C
ветер,
м/с
пор.,
м/с
влажн.,
%
обл.,
%
осадки,
мм/ч
давл.,
гПа
погр.,
м
13 июня, вс
вс1300:00+21с1131100 0.0 101211
03:00+19всв1130100 0.0 101111
06:00+19юв2229100 0.0 101211
09:00+25с1218100 0.0 1012753
12:00+28всв6514100 0.0 10103706
15:00+29в7616100 0.0 10083566
18:00+25в1092288 0.0 10091205
21:00+23в482699 0.0 1012559
14 июня, пн
пн1400:00+22зсз1130100 0.0 101321
03:00+19с113790 0.0 101111
06:00+18с114199 0.0 101311
09:00+24в1324100 0.0 10131456
12:00+27всв761581 0.0 10113445
15:00+28в871584 0.0 10083748
18:00+25в982069 0.0 10101567
21:00+22в5931100 0.0 1013386
15 июня, вт
вт1500:00+20с124253 0.0 101331
03:00+17с116363 0.0 101315
06:00+15с116783 0.0 101511
09:00+22с1329100 0.0 1014918
12:00+27всв7614100 0.0 10123453
15:00+27в8617100 0.0 10103528
18:00+24в108235 0.0 10101495
21:00+21вюв47305 0.0 1013230
16 июня, ср
ср1600:00+19ююв113295 0.0 101311
03:00+17с1131100 0.0 101311
06:00+16с1132100 0.0 101511
09:00+22ссз2227100 0.0 1015637
12:00+26с1514100 0.0 10133164
15:00+28в8614100 0.0 10103394
18:00+25в87268 0.0 10121664
21:00+21в234516 0.0 101466
17 июня, чт
чт1700:00+19юв2244100 0.0 101512
03:00+17ю114798 0.0 101411
06:00+17с114472 0.0 101511
09:00+23ссз2228100 0.0 1015717
12:00+28всв461397 0.0 10123878
15:00+29в861472 0.0 10103740
18:00+26в881869 0.0 10111391
21:00+22юв332875 0.0 101450